This is the latest recevied weather packets stored in our database for station/object AI5YA-13. If no packets are shown the sender has not sent any weather packets the latest 1 day(s).
| Time | Temp. | Humidity | Pressure | Rain* | Wind** | Luminosity | Snow |
|---|---|---|---|---|---|---|---|
| 1778015048 | 26.67° C | 28% | 1009.9 hPa | 0 mm | 0 m/s | 214 W/m² | - |
| 1778014745 | 26.67° C | 28% | 1009.8 hPa | 0 mm | 0 m/s | 184 W/m² | - |
| 1778014443 | 26.67° C | 28% | 1009.7 hPa | 0 mm | 0 m/s | 174 W/m² | - |
| 1778014140 | 26.11° C | 29% | 1009.7 hPa | 0 mm | 0 m/s | 196 W/m² | - |
| 1778013837 | 26.67° C | 28% | 1009.8 hPa | 0 mm | 0 m/s | 239 W/m² | - |
| 1778013534 | 26.11° C | 29% | 1009.6 hPa | 0 mm | 0 m/s | 280 W/m² | - |
| 1778013231 | 26.11° C | 29% | 1009.9 hPa | 0 mm | 0 m/s | 224 W/m² | - |
| 1778012927 | 26.11° C | 29% | 1009.9 hPa | 0 mm | 0 m/s | 193 W/m² | - |
| 1778012624 | 26.11° C | 29% | 1009.9 hPa | 0 mm | 0 m/s | 185 W/m² | - |
| 1778012320 | 26.11° C | 29% | 1009.9 hPa | 0 mm | 0 m/s | 189 W/m² | - |
| 1778012018 | 25.56° C | 29% | 1010.3 hPa | 0 mm | 0 m/s | 172 W/m² | - |
| 1778011716 | 26.11° C | 28% | 1010 hPa | 0 mm | 0 m/s | 176 W/m² | - |
| 1778011412 | 26.11° C | 28% | 1010.2 hPa | 0 mm | 0 m/s | 183 W/m² | - |
| 1778011108 | 26.11° C | 27% | 1009.8 hPa | 0 mm | 0 m/s | 179 W/m² | - |
| 1778010805 | 26.11° C | 27% | 1009.9 hPa | 0 mm | 0 m/s | 174 W/m² | - |
| 1778010502 | 26.11° C | 25% | 1010.1 hPa | 0 mm | 0 m/s | 176 W/m² | - |
| 1778010200 | 26.11° C | 26% | 1010.1 hPa | 0 mm | 0 m/s | 189 W/m² | - |
| 1778009895 | 26.67° C | 27% | 1010.1 hPa | 0 mm | 0 m/s | 212 W/m² | - |
| 1778009593 | 26.67° C | 26% | 1010.1 hPa | 0 mm | 0 m/s | 256 W/m² | - |
| 1778009291 | 26.67° C | 26% | 1010.2 hPa | 0 mm | 0 m/s | 363 W/m² | - |
| 1778008989 | 26.67° C | 26% | 1010.1 hPa | 0 mm | 0 m/s | 307 W/m² | - |
| 1778008686 | 26.11° C | 26% | 1010.1 hPa | 0 mm | 0 m/s | 288 W/m² | - |
| 1778008384 | 26.11° C | 27% | 1010.2 hPa | 0 mm | 0 m/s | 245 W/m² | - |
| 1778008080 | 26.67° C | 26% | 1010.2 hPa | 0 mm | 0 m/s | 308 W/m² | - |
| 1778007776 | 26.67° C | 26% | 1010.3 hPa | 0 mm | 0 m/s | 354 W/m² | - |
* Rain latest hour (hover to see other rain measurements)
** Current wind speed in m/s (hover to see current wind gust speed)